Location: Brabourne
(51.1333°N, 1.0000°E)
Time: 09:01:38
(UTC+00:00)

Lacrosse 4 Rocket - Pass Details

Date: 20 June 2021
Orbit: 543 x 614 km, 68.0° (Epoch: 02 August)

Event Time Altitude Azimuth Distance (km) Brightness Sun altitude
Rises 02:46:16 0° 314° (NW) 2,744 5.0 -6.7°
Reaches altitude 10° 02:48:57 10° 297° (WNW) 1,834 3.9 -6.5°
Maximum altitude 02:51:53 19° 250° (WSW) 1,325 2.8 -6.2°
Drops below altitude 10° 02:54:48 10° 204° (SSW) 1,808 3.3 -5.9°
Enters shadow 02:56:21 - 192° (SSW) 2,306 3.9 -5.7°
